| time (UTC) | temp C | wind direction | speed KPH | gust KPH | rain 1hr cm | rain 24hr cm | rain mn cm | humidity % | barometer mb |
| 20260505070018 | -17 | 0.0 | 0.0 | 0.00 | 0.05 | 0.00 | 1004.1 | ||
| 20260505065023 | 13 | 152 | 19.3 | 24.1 | 0.00 | 0.05 | 0.00 | 71 | 1004.2 |
| 20260505064048 | 13 | 165 | 22.5 | 32.2 | 0.00 | 0.05 | 0.00 | 69 | 1004.3 |
| 20260505063047 | 13 | 157 | 24.1 | 35.4 | 0.00 | 0.05 | 0.00 | 65 | 1004.4 |
| 20260505062029 | 13 | 181 | 20.9 | 29.0 | 0.00 | 0.05 | 0.00 | 69 | 1004.5 |
| 20260505061026 | 13 | 156 | 19.3 | 29.0 | 0.00 | 0.05 | 0.00 | 71 | 1004.4 |
| 20260505060108 | 13 | 167 | 25.7 | 41.8 | 0.00 | 0.05 | 0.00 | 72 | 1004.4 |
| 20260505055027 | 13 | 144 | 19.3 | 29.0 | 0.00 | 0.05 | 0.05 | 71 | 1004.5 |
| 20260505054024 | 14 | 161 | 20.9 | 29.0 | 0.00 | 0.05 | 0.05 | 69 | 1004.6 |
| 20260505053024 | 14 | 148 | 19.3 | 29.0 | 0.03 | 0.05 | 0.05 | 69 | 1004.4 |
| 20260505052031 | 14 | 137 | 20.9 | 29.0 | 0.03 | 0.05 | 0.05 | 69 | 1004.2 |
| 20260505051026 | 14 | 147 | 20.9 | 29.0 | 0.03 | 0.05 | 0.05 | 69 | 1004.1 |
| 20260505041021 | 16 | 145 | 20.9 | 30.6 | 0.00 | 0.03 | 0.03 | 61 | 1003.0 |
| 20260505040027 | 16 | 156 | 14.5 | 19.3 | 0.00 | 0.03 | 0.03 | 57 | 1002.9 |
| 20260505035021 | 17 | 182 | 17.7 | 25.7 | 0.00 | 0.03 | 0.03 | 55 | 1002.5 |
| 20260505034102 | 17 | 169 | 16.1 | 20.9 | 0.00 | 0.03 | 0.03 | 54 | 1002.7 |
| 20260505033018 | 18 | 146 | 16.1 | 25.7 | 0.00 | 0.03 | 0.03 | 48 | 1002.4 |
| 20260505032053 | 18 | 166 | 16.1 | 22.5 | 0.00 | 0.03 | 0.03 | 48 | 1002.1 |
| 20260505031017 | 18 | 148 | 16.1 | 22.5 | 0.00 | 0.03 | 0.03 | 48 | 1001.9 |
| 20260505030018 | 18 | 176 | 14.5 | 22.5 | 0.00 | 0.03 | 0.03 | 48 | 1001.9 |
| 20260505025113 | 18 | 147 | 11.3 | 16.1 | 0.00 | 0.03 | 0.03 | 48 | 1001.9 |
| 20260505024027 | 18 | 172 | 9.7 | 12.9 | 0.00 | 0.03 | 0.03 | 48 | 1001.8 |
| 20260505023107 | 18 | 138 | 9.7 | 14.5 | 0.00 | 0.03 | 0.03 | 47 | 1001.9 |
| 20260505022024 | 19 | 169 | 9.7 | 14.5 | 0.00 | 0.03 | 0.03 | 47 | 1001.8 |
| 20260505021045 | 19 | 140 | 6.4 | 9.7 | 0.00 | 0.03 | 0.03 | 47 | 1001.8 |
| 20260505020025 | 19 | 138 | 4.8 | 8.0 | 0.00 | 0.03 | 0.03 | 46 | 1001.7 |
| 20260505015019 | 20 | 165 | 9.7 | 16.1 | 0.00 | 0.03 | 0.03 | 46 | 1001.7 |
| 20260505014018 | 20 | 141 | 12.9 | 19.3 | 0.00 | 0.03 | 0.03 | 45 | 1001.8 |
| 20260505013019 | 21 | 154 | 9.7 | 17.7 | 0.00 | 0.03 | 0.03 | 44 | 1001.9 |
| 20260505012020 | 21 | 118 | 11.3 | 19.3 | 0.00 | 0.03 | 0.03 | 44 | 1002.0 |
| 20260505011024 | 21 | 162 | 8.0 | 12.9 | 0.00 | 0.03 | 0.03 | 41 | 1002.0 |
| 20260505010021 | 21 | 180 | 8.0 | 9.7 | 0.00 | 0.03 | 0.03 | 40 | 1002.0 |
| 20260505005023 | 21 | 169 | 8.0 | 9.7 | 0.00 | 0.03 | 0.03 | 40 | 1001.9 |
| 20260505004022 | 22 | 176 | 4.8 | 8.0 | 0.00 | 0.03 | 0.03 | 39 | 1002.0 |
| 20260505003024 | 22 | 162 | 6.4 | 9.7 | 0.00 | 0.03 | 0.03 | 40 | 1002.2 |
| 20260505002026 | 21 | 39 | 3.2 | 8.0 | 0.00 | 0.03 | 0.03 | 40 | 1002.2 |
| 20260505001030 | 21 | 53 | 8.0 | 11.3 | 0.00 | 0.03 | 0.03 | 41 | 1002.3 |
| 20260505000033 | 21 | 322 | 6.4 | 11.3 | 0.00 | 0.03 | 0.03 | 42 | 1002.4 |
| 20260504235038 | 21 | 20 | 9.7 | 11.3 | 0.00 | 0.03 | 0.03 | 42 | 1002.3 |
| 20260504234034 | 22 | 356 | 12.9 | 19.3 | 0.00 | 0.03 | 0.03 | 42 | 1002.4 |
| 20260504233021 | 21 | 27 | 14.5 | 17.7 | 0.03 | 0.03 | 0.03 | 43 | 1002.6 |
| 20260504232022 | 21 | 42 | 14.5 | 17.7 | 0.03 | 0.03 | 0.03 | 43 | 1002.5 |
| 20260504231022 | 21 | 18 | 16.1 | 22.5 | 0.03 | 0.03 | 0.03 | 43 | 1002.5 |
| 20260504230032 | 21 | 25 | 14.5 | 20.9 | 0.03 | 0.03 | 0.03 | 42 | 1002.6 |
| 20260504225018 | 21 | 27 | 17.7 | 29.0 | 0.03 | 0.03 | 0.03 | 42 | 1002.6 |
| 20260504224021 | 21 | 28 | 20.9 | 29.0 | 0.03 | 0.03 | 0.03 | 43 | 1002.6 |
| 20260504223020 | 22 | 23 | 14.5 | 24.1 | 0.00 | 0.00 | 0.00 | 44 | 1002.9 |
| 20260504222046 | 21 | 40 | 12.9 | 17.7 | 0.00 | 0.00 | 0.00 | 47 | 1003.0 |
| 20260504221105 | 18 | 30 | 9.7 | 12.9 | 0.00 | 0.00 | 0.00 | 53 | 1003.2 |
| 20260504220029 | 19 | 55 | 14.5 | 27.4 | 0.00 | 0.00 | 0.00 | 54 | 1003.3 |
| 20260504215158 | 20 | 297 | 4.8 | 6.4 | 0.00 | 0.00 | 0.00 | 50 | 1003.1 |
| 20260504214025 | 19 | 203 | 8.0 | 14.5 | 0.00 | 0.00 | 0.00 | 52 | 1003.0 |
| 20260504213025 | 18 | 252 | 11.3 | 19.3 | 0.00 | 0.00 | 0.00 | 57 | 1003.1 |
| 20260504212107 | 20 | 259 | 16.1 | 24.1 | 0.00 | 0.00 | 0.00 | 46 | 1003.0 |
| 20260504211042 | 22 | 265 | 12.9 | 22.5 | 0.00 | 0.00 | 0.00 | 40 | 1002.9 |
| 20260504210018 | 23 | 202 | 9.7 | 14.5 | 0.00 | 0.00 | 0.00 | 39 | 1002.9 |
| 20260504205038 | 24 | 229 | 4.8 | 6.4 | 0.00 | 0.00 | 0.00 | 35 | 1002.7 |
| 20260504204020 | 25 | 232 | 8.0 | 11.3 | 0.00 | 0.00 | 0.00 | 34 | 1002.9 |
| 20260504203022 | 26 | 251 | 9.7 | 14.5 | 0.00 | 0.00 | 0.00 | 34 | 1002.8 |
| 20260504202048 | 27 | 259 | 4.8 | 12.9 | 0.00 | 0.00 | 0.00 | 32 | 1002.9 |
| 20260504201030 | 26 | 181 | 4.8 | 8.0 | 0.00 | 0.00 | 0.00 | 33 | 1002.9 |
| 20260504200214 | 26 | 271 | 6.4 | 9.7 | 0.00 | 0.00 | 0.00 | 34 | 1003.0 |
| 20260504195024 | 25 | 299 | 6.4 | 11.3 | 0.00 | 0.00 | 0.00 | 35 | 1003.1 |
| 20260504194042 | 26 | 258 | 8.0 | 11.3 | 0.00 | 0.00 | 0.00 | 33 | 1003.3 |
| 20260504193020 | 26 | 181 | 8.0 | 12.9 | 0.00 | 0.00 | 0.00 | 33 | 1003.4 |
| 20260504192032 | 26 | 130 | 4.8 | 11.3 | 0.00 | 0.00 | 0.00 | 34 | 1003.4 |
| 20260504191024 | 26 | 138 | 11.3 | 20.9 | 0.00 | 0.00 | 0.00 | 34 | 1003.4 |
| 20260504190026 | 25 | 174 | 11.3 | 19.3 | 0.00 | 0.00 | 0.00 | 35 | 1003.5 |
| 20260504185028 | 27 | 139 | 8.0 | 14.5 | 0.00 | 0.00 | 0.00 | 33 | 1003.9 |
| 20260504184032 | 27 | 132 | 8.0 | 11.3 | 0.00 | 0.00 | 0.00 | 34 | 1003.8 |
| 20260504183038 | 26 | 111 | 9.7 | 16.1 | 0.00 | 0.00 | 0.00 | 35 | 1004.0 |
| 20260504182018 | 26 | 168 | 12.9 | 20.9 | 0.00 | 0.00 | 0.00 | 34 | 1004.2 |
| 20260504181032 | -17 | 158 | 12.9 | 12.9 | 0.00 | 0.00 | 0.00 | 1004.2 | |
| 20260504180033 | 25 | 146 | 14.5 | 25.7 | 0.00 | 0.00 | 0.00 | 36 | 1004.2 |
| 20260504175019 | 25 | 150 | 12.9 | 17.7 | 0.00 | 0.00 | 0.00 | 36 | 1004.5 |
| 20260504174031 | 24 | 165 | 12.9 | 20.9 | 0.00 | 0.00 | 0.00 | 37 | 1004.4 |
| 20260504173017 | 24 | 161 | 12.9 | 17.7 | 0.00 | 0.00 | 0.00 | 38 | 1004.5 |
| 20260504172021 | 24 | 129 | 11.3 | 14.5 | 0.00 | 17.50 | 0.00 | 38 | 1004.7 |
| 20260504171021 | 23 | 123 | 9.7 | 16.1 | 0.00 | 17.50 | 0.00 | 40 | 1004.8 |
| 20260504151025 | 20 | 179 | 9.7 | 14.5 | 0.00 | 17.50 | 0.00 | 46 | 1005.2 |
| 20260504141016 | 18 | 85 | 6.4 | 8.0 | 0.00 | 17.50 | 0.00 | 48 | 1005.2 |
| 20260504081031 | 16 | 168 | 16.1 | 20.9 | 0.00 | 17.50 | 0.00 | 45 | 1005.2 |